Regional Weather Roundup
Issued by NWS

Home | Current Version | Previous Version | Graphics & Text | Print | Product List | Glossary On
Versions: 1 2 3 4 5 6 7 8 9 10 11 12 13 14 15 16 17 18 19 20 21 22 23 24 25 26 27 28 29 30 31 32 33 34 35 36 37 38 39 40 41 42 43 44 45 46 47 48 49 50
993
ASUS44 KJAN 011803
RWRMS

MISSISSIPPI HOURLY WEATHER ROUNDUP
NATIONAL WEATHER SERVICE JACKSON MS
100 PM CDT WED APR 01 2015

NOTE: "FAIR: INDICATES FEW OR NO CLOUDS BELOW 12,000 FEET WITH NO
SIGNIFICANT WEATHER AND/OR OBSTRUCTIONS TO VISIBILITY.

MSZ001>002-007>008-010>013-018>021-025>028-034>036-011900-
NORTHWEST MISSISSIPPI

CITY           SKY/WX    TMP DP  RH WIND       PRES   REMARKS
CLARKSDALE     FAIR      75  66  73 S12       30.02S
CLEVELAND      CLOUDY    71  67  87 S15       30.02S
GREENWOOD      CLOUDY    72  62  71 S10       30.04F
6HR MIN TEMP:  55; 6HR MAX TEMP:  72;

GREENVILLE     CLOUDY    75  66  73 S9        30.01F
6HR MIN TEMP:  58; 6HR MAX TEMP:  75;

OLIVE BRANCH   PTSUNNY   75  66  73 S9        30.01F
OXFORD         FAIR      75  61  60 S8        30.04F
TUNICA         FAIR      75  64  69 S10       30.00F
$$

MSZ003>006-009-014>017-022>024-029>033-037>039-011900-
NORTHEAST MISSISSIPPI

CITY           SKY/WX    TMP DP  RH WIND       PRES   REMARKS
COLUMBUS AFB   FAIR      78  61  54 S12       30.04F
6HR MIN TEMP:  58; 6HR MAX TEMP:  79; 6HR PCP: TRACE;

CORINTH        FAIR      73  59  60 VRB6G13   30.04F
GOLDN TRIANGLE MOSUNNY   79  63  57 SW9       30.05F
STARKVILLE     FAIR      77  61  57 CALM      30.05F
TUPELO         FAIR      76  62  62 S8        30.04F
6HR MIN TEMP:  57; 6HR MAX TEMP:  76;

$$

MSZ040-058-011900-
CENTRAL MISSISSIPPI

CITY           SKY/WX    TMP DP  RH WIND       PRES   REMARKS
JACKSON INTL   PTSUNNY   77  62  59 S7        30.05F
6HR MIN TEMP:  64; 6HR MAX TEMP:  77;

JACKSON HAWKNS FAIR      79  61  53 S8        30.05F
6HR MIN TEMP:  65; 6HR MAX TEMP:  79;

MERIDIAN KEY   CLOUDY    75  62  64 S7        30.07F
6HR MIN TEMP:  58; 6HR MAX TEMP:  75;

MERIDIAN NAS   PTSUNNY   75  61  61 SW7       30.07F
6HR MIN TEMP:  60; 6HR MAX TEMP:  77;

RAYMOND        FAIR      79  73  83 S8        30.04F
VICKSBURG      FAIR      77  64  64 S9        30.04F
6HR MIN TEMP:  66; 6HR MAX TEMP:  77;

$$

MSZ059>079-011900-
SOUTH MISSISSIPPI

CITY           SKY/WX    TMP DP  RH WIND       PRES   REMARKS
BROOKHAVEN     FAIR      75  63  64 S7        30.09F
HATTIESBURG    FAIR      79  57  46 MISG      30.09F
6HR MIN TEMP:  64; 6HR MAX TEMP:  79;

MCCOMB         FAIR      77  63  61 S10G16    30.08F
6HR MIN TEMP:  63; 6HR MAX TEMP:  78;

NATCHEZ        PTSUNNY   75  63  64 S8        30.07F
6HR MIN TEMP:  64; 6HR MAX TEMP:  75;

PINE BELT      PTSUNNY   75  59  57 SW3       30.10F
6HR MIN TEMP:  61; 6HR MAX TEMP:  75;

$$

MSZ080>082-011900-
COASTAL MISSISSIPPI

CITY           SKY/WX    TMP DP  RH WIND       PRES   REMARKS
BAY ST LOUIS   MOSUNNY   79  55  44 MISG      30.09F
BILOXI         FAIR      75  68  78 S12       30.10F
6HR MIN TEMP:  65; 6HR MAX TEMP:  76;

PASCAGOULA     FAIR      80  64  58 S12G17    30.10F
6HR MIN TEMP:  57; 6HR MAX TEMP:  80;

GULFPORT       FAIR      77  65  66 S12       30.10F
6HR MIN TEMP:  61; 6HR MAX TEMP:  77;

$$



USA.gov is the U.S. government's official web portal to all federal, state and local government web resources and services.